Location: Unspecified
(41.5000°N, 0.0000°E)
Time: 15:43:59
(UTC+00:00)

deb Explorer IX - Pass Details

Date: 26 June 2019
Orbit: 540 x 1111 km, 38.8° (Epoch: 20 August)

Event Time Altitude Azimuth Distance (km) Brightness Sun altitude
Rises 13:34:15 0° 257° (WSW) 3,706 ? 63.7°
Reaches altitude 10° 13:36:50 10° 255° (WSW) 2,820 ? 63.3°
Maximum altitude 13:43:48 70° 173° (S) 1,153 ? 62.2°
Drops below altitude 10° 13:51:09 10° 92° (E) 2,972 ? 61.0°
Sets 13:53:55 0° 90° (E) 3,915 ? 60.6°
